Content
SEND FEEDBACK

Daily
Averages
Monthly
Summary
United States of America

ANN ARBOR, MICHIGAN


Home > North America > United States > Michigan
Elevation: 759 feet     Latitude: 42 17N     Longitude: 083 43W

WEATHER
 
SELECT A DAY
Number of Records: 204,513;   Date Range: 1/1/95 - 9/21/14
 
SHARE

PRINT THIS DATA

[ ← Previous Day ]
WEATHER ALMANAC - JUNE 17, 2014
[ Next Day → ]
[ °C ]   °F
Weather ElementAverageHighLow
Temperature77.9 °F89.1 °F (5:15 pm)61 °F (1:53 am)
Dewpoint65.1 °F69.1 °F (1:53 pm)59 °F (1:53 am)
Humidity66.9 %93 % (1:53 am)48 % (6:53 pm)
Barometer29.91 in29.99 in (1:53 am)29.83 in (12:53 pm)
Wind Speed10.6 mph21.9 mph (2:53 pm)
Wind Gust31.1 mph (12:53 pm)
Weather ElementAverage
Visibility9.4 mi
Wind DirectionSW (224.6 °)

Weather ElementTotal
Precipitation---
Cooling Degree Days10.1 (Base 65)
Growing Degree Days25.1 (Base 50)
Averaged from 26 records on June 17, 2014
WEATHER CONDITIONS BREAKOUT
WIND DIRECTION BREAKOUT
WEATHER BY HOUR - JUNE 17, 2014
[ °C ]   °F
Local TimeTemperatureDewpointHumidityBarometerVisibilityWind DirectionWind SpeedGust SpeedPrecipitationEventsConditions
1:53 AM61.0 °F59.0 °F93 %29.99 in10.0 miCalmClear
2:53 AM62.1 °F60.1 °F93 %29.98 in10.0 miCalmPartly Cloudy
3:53 AM64.0 °F61.0 °F90 %29.96 in10.0 miWest (270°)3.5 mphClear
4:53 AM64.0 °F61.0 °F90 %29.98 in10.0 miCalmClear
5:53 AM64.9 °F62.1 °F90 %29.98 in10.0 miSouth (180°)4.6 mphClear
6:46 AM68.0 °F64.9 °F90 %29.98 in6.0 miSouth (190°)3.5 mphPartly Cloudy
6:53 AM69.1 °F64.9 °F87 %29.96 in6.0 miSouth (190°)3.5 mphPartly Cloudy
7:53 AM71.1 °F66.9 °F87 %29.96 in4.0 miSSW (200°)5.8 mphClear
8:53 AM77.0 °F68.0 °F74 %29.96 in9.0 miSW (220°)9.2 mphClear
9:53 AM81.0 °F66.9 °F62 %29.92 in10.0 miSW (230°)20.7 mph26.5 mphClear
10:53 AM84.9 °F66.9 °F55 %29.89 in10.0 miWSW (240°)17.3 mph26.5 mphClear
11:53 AM82.9 °F68.0 °F60 %29.86 in10.0 miSW (230°)16.1 mph23.0 mphClear
12:53 PM84.0 °F66.9 °F56 %29.83 in10.0 miSW (220°)17.3 mph31.1 mphClear
1:53 PM84.9 °F69.1 °F59 %29.87 in10.0 miWSW (250°)20.7 mph28.8 mphMostly Cloudy
2:53 PM87.1 °F69.1 °F55 %29.85 in10.0 miWest (260°)21.9 mph31.1 mphClear
4:53 PM87.1 °F68.0 °F53 %29.84 in10.0 miWest (260°)16.1 mph21.9 mphScattered Clouds
5:15 PM89.1 °F68.0 °F50 %29.87 in10.0 miWest (280°)19.6 mph28.8 mphThunderstormMostly Cloudy
5:30 PM87.1 °F68.0 °F53 %29.87 in10.0 miWest (270°)16.1 mph24.2 mphScattered Clouds
5:53 PM88.0 °F68.0 °F51 %29.85 in10.0 miWest (280°)17.3 mph24.2 mphPartly Cloudy
6:53 PM88.0 °F66.0 °F48 %29.85 in10.0 miWNW (300°)15.0 mph24.2 mphClear
7:40 PM86.0 °F66.0 °F51 %29.89 in10.0 miWNW (300°)15.0 mph28.8 mphPartly Cloudy
7:53 PM86.0 °F66.0 °F51 %29.88 in10.0 miWNW (300°)11.5 mph20.7 mphPartly Cloudy
8:53 PM82.0 °F64.9 °F56 %29.89 in10.0 miWNW (300°)8.1 mphClear
9:53 PM79.0 °F62.1 °F56 %29.91 in10.0 miNW (310°)4.6 mphClear
10:53 PM75.0 °F61.0 °F62 %29.93 in10.0 miWNW (290°)5.8 mphClear
11:53 PM72.0 °F61.0 °F68 %29.94 in10.0 miWest (270°)3.5 mphScattered Clouds
Hourly data recorded from KARB, located miles away from Ann Arbor, Michigan







STORIES FROM OUR PARTNERS